User: anonymous   Login
Location: Plymouth
(43.7570°N, 71.6890°W)
Time: 04:55:17
(UTC-05:00)
Language:

Meteor 1-28 Rocket - Orbit

View from above orbital plane
View from above orbital plane
View from above satellite
View from above satellite

Ground track
Ground track

The orbit data is extracted from the following two-line orbital elements,

1 10114U 77057B   16345.84732461  .00000637  00000-0  35849-4 0  9996
2 10114  97.1963 171.6653 0012444 256.1950 103.7899 15.16531958155008
Epoch (UTC): 10 December 2016 20:20:08
Eccentricity: 0.0012444
inclination: 97.1963°
perigee height: 508 km
apogee height: 525 km
right ascension of ascending node: 171.6653°
argument of perigee: 256.1950°
revolutions per day: 15.16531958
mean anomaly at epoch: 103.7899°
orbit number at epoch: 15500

The dashed part of the orbit path shows where the satellite is in the earth's shadow,  

DLR